Total_Precipitation_Accumulation
1.96 2.28 2.74 3.45 3.92 4.09 4.18 4.36 4.41 4.49 4.54 4.57 4.58 4.74 4.91 4.92 4.91 5.03 5.05 4.93 4.87 5.01 5.37 5.40 5.24 4.88 4.59 4.43 4.44 4.45 4.23 3.93 3.77 3.84 3.67 3.29 2.93 2.83 2.72 2.69 2.67 2.54 2.57
1.85 2.28 2.76 3.24 3.53 3.91 4.10 4.35 4.37 4.53 4.82 5.24 5.75 6.02 6.15 6.00 5.81 5.70 5.63 5.49 5.40 5.51 5.61 5.73 5.39 5.01 4.82 4.56 4.34 4.32 4.18 3.90 3.84 3.93 4.02 3.59 3.30 2.77 2.38 2.48 2.49 2.49 2.54
1.85 2.19 2.43 2.84 3.14 3.52 3.88 4.15 4.48 4.86 5.38 6.07 6.88 7.23 7.00 6.55 6.32 6.02 5.94 5.68 5.46 5.44 5.59 5.35 5.11 4.90 4.68 4.47 4.29 4.32 4.29 3.93 3.79 3.91 4.17 3.85 3.46 3.06 2.69 2.42 2.33 2.44 2.50
1.84 2.00 2.24 2.57 2.79 3.13 3.62 4.10 4.64 5.21 5.90 6.55 7.01 7.24 7.15 6.89 6.58 6.10 5.70 5.31 4.98 4.79 4.73 4.63 4.40 4.30 4.17 4.03 3.83 3.89 4.00 3.92 3.65 3.59 3.42 3.36 3.24 3.19 2.90 2.61 2.41 2.40 2.45
1.71 1.82 1.99 2.25 2.59 3.04 3.53 4.05 4.56 5.25 5.75 6.29 6.70 6.99 7.03 6.93 6.56 5.83 5.18 4.75 4.37 4.12 3.85 3.65 3.60 3.58 3.54 3.36 3.19 3.23 3.28 3.26 3.23 3.21 3.06 3.05 3.02 2.94 2.82 2.70 2.62 2.55 2.39
1.74 1.77 1.84 2.03 2.54 2.98 3.51 3.91 4.26 4.98 5.66 6.17 6.53 6.82 6.83 6.66 6.03 5.29 4.73 4.31 3.96 3.71 3.44 3.28 3.17 3.16 3.07 2.90 2.77 2.75 2.75 2.78 2.82 2.93 2.94 2.87 2.79 2.73 2.77 2.59 2.50 2.50 2.35
1.63 1.65 1.89 2.08 2.67 3.09 3.37 3.63 3.91 4.37 4.87 5.34 5.66 5.86 5.90 5.67 5.23 4.82 4.35 3.95 3.68 3.40 3.06 2.74 2.60 2.56 2.64 2.64 2.61 2.59 2.51 2.52 2.55 2.52 2.54 2.56 2.50 2.54 2.66 2.65 2.49 2.39 2.28
1.58 1.58 1.84 2.11 2.33 2.63 2.92 3.20 3.40 3.69 3.96 4.19 4.45 4.42 4.43 4.42 4.22 3.88 3.46 3.16 2.86 2.67 2.51 2.29 2.16 2.15 2.23 2.30 2.40 2.35 2.21 2.20 2.32 2.33 2.44 2.42 2.38 2.49 2.51 2.65 2.75 2.69 2.45
1.55 1.63 1.85 2.02 2.12 2.30 2.55 2.75 2.85 3.07 3.19 3.17 3.14 3.17 3.14 3.20 3.21 3.07 2.75 2.42 2.18 2.02 1.97 1.93 1.91 1.77 1.82 1.98 2.09 2.06 2.01 2.06 2.11 2.14 2.25 2.28 2.27 2.35 2.35 2.47 2.66 2.89 2.80
1.59 1.68 1.81 2.02 2.13 2.15 2.35 2.50 2.47 2.51 2.60 2.66 2.53 2.41 2.48 2.56 2.56 2.49 2.28 2.06 1.86 1.70 1.61 1.61 1.59 1.50 1.52 1.67 1.80 1.83 1.92 2.00 1.95 1.94 1.99 1.99 1.98 2.20 2.32 2.36 2.48 2.72 2.90
1.71 1.80 1.81 1.87 1.93 1.96 2.02 2.13 2.15 2.17 2.19 2.22 2.23 2.18 2.10 2.03 2.02 2.06 2.01 1.85 1.73 1.60 1.52 1.44 1.45 1.46 1.43 1.48 1.59 1.60 1.69 1.79 1.81 1.76 1.74 1.75 1.86 2.00 2.06 2.17 2.28 2.52 2.81
1.84 1.94 1.94 1.85 1.86 1.99 2.09 2.02 2.02 2.02 2.01 1.98 2.03 2.09 1.91 1.78 1.75 1.75 1.72 1.60 1.56 1.52 1.46 1.41 1.40 1.37 1.37 1.38 1.39 1.39 1.45 1.58 1.58 1.56 1.59 1.46 1.54 1.75 1.87 2.02 2.10 2.24 2.45
2.05 2.18 2.08 1.86 1.79 1.84 1.87 1.77 1.70 1.71 1.57 1.52 1.66 1.78 1.62 1.50 1.51 1.48 1.48 1.47 1.41 1.39 1.31 1.28 1.24 1.21 1.27 1.32 1.32 1.32 1.37 1.37 1.39 1.46 1.46 1.46 1.61 1.69 1.82 1.94 1.99 2.14 2.20
1.97 2.09 2.11 1.92 1.84 1.72 1.68 1.58 1.46 1.46 1.43 1.38 1.39 1.45 1.46 1.43 1.38 1.35 1.35 1.33 1.27 1.23 1.16 1.09 1.09 1.12 1.13 1.13 1.16 1.20 1.25 1.31 1.34 1.40 1.42 1.45 1.54 1.65 1.85 1.91 2.02 2.18 2.29
1.97 2.08 2.03 1.88 1.86 1.81 1.73 1.53 1.41 1.39 1.39 1.42 1.42 1.38 1.36 1.31 1.31 1.31 1.28 1.20 1.18 1.11 1.08 1.05 1.04 1.05 1.04 0.98 1.02 1.16 1.23 1.35 1.41 1.41 1.38 1.34 1.37 1.51 1.65 1.71 1.95 2.22 2.38
2.01 1.97 1.91 1.88 1.87 1.86 1.79 1.56 1.38 1.31 1.36 1.44 1.45 1.41 1.37 1.31 1.29 1.32 1.31 1.27 1.27 1.23 1.16 1.17 1.12 1.06 0.92 0.98 1.02 1.07 1.23 1.34 1.37 1.45 1.42 1.25 1.23 1.27 1.33 1.39 1.51 1.84 2.11
2.29 2.20 2.08 2.07 2.08 1.96 1.78 1.66 1.46 1.37 1.36 1.40 1.40 1.46 1.41 1.32 1.26 1.24 1.35 1.35 1.37 1.32 1.25 1.20 1.15 1.11 1.05 1.04 0.96 0.97 1.10 1.29 1.38 1.45 1.50 1.32 1.16 1.27 1.30 1.28 1.27 1.40 1.65
2.27 2.21 2.15 2.17 2.12 1.98 1.88 1.75 1.54 1.41 1.36 1.33 1.26 1.31 1.33 1.32 1.27 1.29 1.36 1.39 1.45 1.45 1.32 1.20 1.18 1.22 1.04 0.98 0.93 0.97 1.08 1.27 1.35 1.35 1.38 1.45 1.41 1.26 1.27 1.34 1.41 1.52 1.62
2.10 2.09 2.08 2.15 2.09 1.97 1.87 1.75 1.58 1.39 1.27 1.22 1.19 1.13 1.11 1.14 1.19 1.20 1.30 1.45 1.50 1.44 1.27 1.17 1.19 1.17 0.99 0.90 0.86 0.88 1.01 1.19 1.25 1.18 1.14 1.19 1.23 1.17 1.21 1.38 1.62 1.77 1.91
1.89 1.87 1.86 1.92 1.96 1.89 1.82 1.76 1.68 1.46 1.24 1.09 1.03 1.05 1.10 1.10 1.11 1.18 1.30 1.31 1.37 1.37 1.24 1.13 1.11 1.05 0.94 0.86 0.78 0.79 0.85 1.00 1.06 1.12 1.10 1.13 1.13 1.11 1.19 1.38 1.74 1.95 2.02
1.78 1.65 1.55 1.58 1.65 1.66 1.65 1.61 1.52 1.34 1.06 0.94 0.92 0.98 1.00 1.03 1.04 1.18 1.23 1.23 1.20 1.27 1.27 1.19 1.10 1.01 0.87 0.76 0.72 0.70 0.71 0.82 0.95 1.03 1.09 1.13 1.12 1.07 1.16 1.38 1.63 1.86 1.91
1.69 1.55 1.47 1.37 1.32 1.34 1.45 1.48 1.30 1.06 0.91 0.86 0.85 0.85 0.84 0.79 0.82 1.10 1.23 1.22 1.27 1.23 1.16 1.19 1.13 0.98 0.86 0.69 0.57 0.55 0.60 0.70 0.95 1.07 1.07 1.10 1.12 1.10 1.22 1.33 1.61 1.89 2.04
1.51 1.39 1.27 1.16 1.07 1.13 1.20 1.17 1.07 0.91 0.79 0.82 0.86 0.82 0.77 0.80 0.79 0.89 0.99 1.05 1.14 1.09 0.99 0.99 0.99 0.88 0.75 0.63 0.50 0.45 0.48 0.60 0.75 0.93 1.07 1.06 1.02 1.16 1.43 1.59 1.75 1.97 2.12
1.36 1.23 1.20 1.13 1.04 1.00 0.94 0.90 0.78 0.78 0.80 0.86 0.91 0.89 0.84 0.83 0.80 0.80 0.79 0.75 0.79 0.84 0.91 0.91 0.89 0.84 0.77 0.59 0.46 0.44 0.48 0.55 0.64 0.78 0.99 1.13 1.20 1.36 1.65 1.88 1.99 2.05 2.02
1.22 1.12 1.22 1.17 1.06 0.93 0.85 0.75 0.69 0.73 0.89 0.93 0.88 0.86 0.81 0.76 0.76 0.72 0.70 0.64 0.63 0.69 0.74 0.77 0.80 0.78 0.68 0.54 0.49 0.45 0.45 0.52 0.61 0.75 0.95 1.14 1.25 1.46 1.69 1.83 1.85 1.85 1.80
1.07 1.05 1.13 1.10 1.01 0.92 0.88 0.78 0.69 0.69 0.81 0.87 0.85 0.78 0.75 0.71 0.64 0.61 0.57 0.51 0.47 0.50 0.53 0.54 0.54 0.53 0.54 0.55 0.50 0.46 0.50 0.58 0.69 0.80 1.04 1.23 1.33 1.50 1.63 1.74 1.71 1.65 1.62